sat.trackr.live / text

‹ back to catalog

COSMOS 2475 (743)

NORAD 37869 · 2011-064C

PAYLOAD ACTIVE UNKNOWN

§ Identity

Operator
Country
CIS
Launch date
2011-11-04
Launch site
TYMSC
Launch vehicle
Mass (kg)
RCS (m²)
6.31

Purposes: nav

External: N2YO · Heavens-Above · Gunter

§ Orbital elements

Epoch: 2026-09-19T14:00:01.452096Z

Period
675.73 min
Inclination
65.3423°
Eccentricity
0.0024728
Mean motion
2.13101769 rev/d
Perigee alt
19,066.8 km
Apogee alt
19,193.0 km
Semi-major
25,508.0 km
B*
0.0000e+0
RAAN
69.7899°
Arg perigee
245.7583°
Mean anomaly
111.5105°
Rev number
11,577

§ Raw data

COSMOS 2475 (743)1 37869U 11064C   26262.58335014  .00000031  00000+0  00000+0 0  99942 37869  65.3423  69.7899 0024728 245.7583 111.5105  2.13101769115778

JSON: /api/v1/satellites/37869 · /tle

For live sub-satellite position, see the globe view (requires WebGL).

§ Visibility from observer

Set your observer location to see the next 7 days of passes ≥ 10°. The values pass through the URL so the page stays shareable.

No JS? Fill the form by hand. The geolocation button needs JavaScript.